[[{"header":{"parameterUnit":"m.s-1","parameterCategory":1,"la1":30.2991,"la2":30.254,"lo1":-89.0895,"lo2":-89.0444,"dy":0.0017,"dx":0.0017,"nx":28,"ny":28,"refTime":"2024-08-01T21:00:00:Z","depth":0,"parameterNumber":2,"parameterNumberName":"U-component_of_WINDS"},"data":[0,0,0,0,0,0,0,0,0,0,0,0,0,0,0,0,0,0,0,0,0,0,0,0,0,0,0,0,0,0,0,0,0,0,0,0,0,0,0,0,0,0,0,0,0,0,0,0,0,0,0,0,0,0,0,0,0,0,4.5849,4.585,0,4.5933,4.5934,4.5935,4.5873,4.587,4.5867,4.5864,4.5953,4.5957,4.5962,0,0,0,0,0,0,0,0,0,0,0,0,0,4.5638,4.5642,4.5849,4.585,4.5851,4.5933,4.5934,4.5935,4.5873,4.587,4.5866,4.5863,4.5951,4.5957,4.5963,0,0,0,0,0,0,0,0,0,0,0,0,0,4.5727,4.5644,4.5849,4.583,4.5829,4.5933,4.5934,4.5936,4.5874,4.587,4.5865,4.5862,4.5949,4.5956,4.5963,4.6091,0,0,4.5986,4.5989,0,0,0,0,0,0,0,0,4.5722,4.5735,4.5832,4.5832,4.5831,4.5888,4.5892,4.5988,4.5875,4.5857,4.5864,4.586,4.5935,4.5943,4.5968,4.6095,4.6099,4.5987,4.5991,4.5994,4.5996,0,0,0,0,0,0,0,4.5716,4.5731,4.5883,4.5833,4.5833,4.5818,4.5826,4.591,4.5918,4.5858,4.5854,4.5864,4.5934,4.5961,4.5969,4.61,4.5986,4.5993,4.5997,4.6,4.6339,4.6344,0,0,0,0,0,0,4.5711,4.5726,4.588,4.5885,4.5765,4.5826,4.5835,4.5874,4.5917,4.5919,4.5868,4.5861,4.595,4.5961,4.5972,4.6126,4.5994,4.6001,4.6005,4.6335,4.634,4.6345,0,0,0,0,0,0,4.5707,4.5725,4.5877,4.5805,4.5823,4.5834,4.5878,4.5878,4.5905,4.5924,4.5925,4.5894,4.5947,4.5962,4.6062,4.6128,4.6004,4.6011,4.6329,4.6336,4.6343,4.6434,0,0,0,0,0,0,4.5701,4.5724,4.5772,4.5806,4.5827,4.5965,4.5882,4.5882,4.5917,4.591,4.5949,4.5952,4.5945,4.6052,4.607,4.6136,4.6017,4.6323,4.6332,4.634,4.6425,4.6443,4.6458,0,0,0,0,0,4.5694,4.5794,4.5775,4.5794,4.5886,4.5968,4.598,4.597,4.5923,4.5972,4.5984,4.595,4.6118,4.6063,4.6082,4.6152,4.6319,4.633,4.634,4.6417,4.6439,4.6458,0,0,0,0,0,0,4.5768,4.5798,4.5777,4.5891,4.5928,4.5958,4.6019,4.5994,4.6045,4.6035,4.6021,4.6031,4.6137,4.6154,4.6092,4.6279,4.6211,4.6226,4.6263,4.6284,4.6301,4.6294,4.6023,0,0,0,0,0,4.5798,4.5861,4.5884,4.5983,4.6002,4.6008,4.6043,4.6032,4.607,4.6085,4.6105,4.6143,4.6205,4.6245,4.6303,4.6427,4.6436,4.6485,4.6501,4.6515,4.6528,4.6597,4.6619,4.6379,4.6379,4.6379,0,0,4.5859,4.5884,4.5925,4.5998,4.6025,4.6092,4.6021,4.6094,4.6144,4.6096,4.6192,4.6209,4.6251,4.6364,4.6415,4.6382,4.6596,4.6528,4.6539,4.6544,4.661,4.6632,4.6653,4.6386,4.6385,4.6384,0,0,4.6007,4.6031,4.6117,4.6145,4.6187,4.619,4.6211,4.6245,4.6254,4.6351,4.6317,4.6376,4.6482,4.6514,4.6544,4.6705,4.6677,4.6725,4.6812,4.6879,4.6898,4.6915,4.6974,4.6995,4.6738,4.6738,4.6738,0,4.6079,4.6177,4.6164,4.6241,4.6275,4.6234,4.6322,4.6351,4.641,4.6435,4.6396,4.6529,4.6555,4.6676,4.6716,4.6741,4.6765,4.672,4.6896,4.6913,4.6928,4.6984,4.7007,4.6743,4.6743,4.6742,4.6742,0,4.6264,4.6333,4.6398,4.6456,4.6497,4.6579,4.6579,4.6623,4.661,4.6617,4.6717,4.6746,4.681,4.6838,4.6825,4.6958,4.6936,4.6898,4.683,4.6957,4.701,4.7031,4.6751,4.6749,4.6748,4.6746,0,0,4.646,4.651,4.6534,4.6561,4.6605,4.6659,4.6739,4.6801,4.684,4.6882,4.695,4.7042,4.7007,4.7041,4.7032,4.7091,4.7219,4.7045,4.7046,4.7077,4.7369,4.7398,4.7423,4.72,4.7204,4.7207,4.7366,0,4.661,4.675,4.6741,4.6874,4.6938,4.6902,4.6972,4.7008,4.7018,4.7075,4.7086,4.7151,4.7099,4.712,4.7177,4.7191,4.7277,4.7179,4.7265,4.7268,4.7256,4.7451,4.7482,4.763,4.7386,4.739,4.7392,0,4.6804,4.6853,4.6992,4.7028,4.7055,4.7118,4.7175,4.723,4.727,4.7273,4.7312,4.7294,4.7377,4.7307,4.7422,4.7356,4.739,4.7403,4.7409,4.7417,4.7338,4.7465,4.7677,4.77,4.7424,4.7422,4.7419,0,4.6934,4.7035,4.7132,4.7155,4.7199,4.7245,4.7266,4.7302,4.734,4.739,4.7415,4.7475,4.7507,4.7554,4.7553,4.7502,4.7671,4.76,4.7677,4.7677,4.7714,4.7712,4.7936,4.7735,4.7735,4.7735,4.7734,0,4.7104,4.719,4.7191,4.7251,4.7347,4.7337,4.7433,4.7449,4.7482,4.7545,4.7517,4.7576,4.757,4.7631,4.7631,4.7727,4.7742,4.7748,4.7747,4.7751,4.7751,4.7774,4.7764,4.774,4.7739,4.7738,4.7737,0,4.7266,4.727,4.7373,4.7406,4.7417,4.7487,4.7516,4.7573,4.758,4.7661,4.7679,4.7691,4.7762,4.7765,4.7846,4.7845,4.7963,4.795,4.795,4.7948,4.8025,4.8018,4.8272,4.8305,4.8082,4.8085,4.8086,0,4.7374,4.744,4.7481,4.752,4.7544,4.7608,4.7647,4.7641,4.7683,4.7735,4.7786,4.7853,4.7907,4.8021,4.8038,4.8101,4.809,4.8174,4.8099,4.8101,4.8092,4.8089,4.8096,4.8189,4.8192,4.8194,4.8195,0,4.7566,4.7565,4.7622,4.7681,4.7728,4.7774,4.7816,4.7851,4.7849,4.7899,4.797,4.8011,4.8094,4.8162,4.8223,4.8245,4.8221,4.8219,4.824,4.8245,4.8243,4.8246,4.7991,4.8213,4.8211,4.821,4.8209,4.8208,4.7705,4.7762,4.7801,4.7866,4.7897,4.7938,4.7994,4.8009,4.8068,4.8134,4.8127,4.8207,4.8247,4.8326,4.8354,4.8417,4.8388,4.8418,4.8426,4.8434,4.8443,4.8232,4.8428,4.8427,4.8427,4.8426,4.8426,0,4.7897,4.792,4.798,4.804,4.8092,4.8064,4.811,4.8155,4.8226,4.8265,4.8318,4.8401,4.8468,4.849,4.8555,4.8601,4.8592,4.8619,4.8615,4.8621,4.8464,4.844,4.8625,4.8625,4.8625,4.8625,4.8625,4.8625,4.8002,4.8099,4.8103,4.8215,4.8237,4.8315,4.8344,4.8382,4.8413,4.8507,4.8562,4.8576,4.8609,4.8676,4.8736,4.8741,4.8767,4.8799,4.8799,4.8652,4.8632,4.8613,4.859,4.8804,4.8804,4.8951,4.8952,4.8953]},{"header":{"parameterUnit":"m.s-1","parameterCategory":1,"la1":30.2991,"la2":30.254,"lo1":-89.0895,"lo2":-89.0444,"dy":0.0017,"dx":0.0017,"nx":28,"ny":28,"refTime":"2024-08-01T21:00:00:Z","depth":0,"parameterNumber":3,"parameterNumberName":"V-component_of_WINDS"},"data":[0,0,0,0,0,0,0,0,0,0,0,0,0,0,0,0,0,0,0,0,0,0,0,0,0,0,0,0,0,0,0,0,0,0,0,0,0,0,0,0,0,0,0,0,0,0,0,0,0,0,0,0,0,0,0,0,0,0,0.5318,0.5319,0,0.5342,0.5342,0.5343,0.5335,0.5335,0.5334,0.5334,0.5358,0.5359,0.536,0,0,0,0,0,0,0,0,0,0,0,0,0,0.5265,0.5266,0.5318,0.5319,0.5319,0.5342,0.5342,0.5343,0.5335,0.5335,0.5334,0.5334,0.5357,0.5359,0.536,0,0,0,0,0,0,0,0,0,0,0,0,0,0.5289,0.5267,0.5318,0.5318,0.5318,0.5342,0.5342,0.5343,0.5335,0.5335,0.5334,0.5333,0.5357,0.5359,0.536,0.5385,0,0,0.5365,0.5366,0,0,0,0,0,0,0,0,0.5287,0.5291,0.5318,0.5318,0.5318,0.5335,0.5333,0.5357,0.5336,0.5329,0.5334,0.5333,0.5351,0.5353,0.5359,0.5387,0.5388,0.5365,0.5366,0.5367,0.5368,0,0,0,0,0,0,0,0.5286,0.529,0.5328,0.5318,0.5319,0.5316,0.5319,0.5337,0.5344,0.533,0.5329,0.5332,0.5351,0.5357,0.5359,0.5388,0.5365,0.5367,0.5368,0.5368,0.5436,0.5437,0,0,0,0,0,0,0.5284,0.5288,0.5327,0.5329,0.5301,0.5318,0.5321,0.533,0.5344,0.5345,0.5333,0.5332,0.5355,0.5358,0.536,0.539,0.5367,0.5369,0.537,0.5435,0.5436,0.5437,0,0,0,0,0,0,0.5283,0.5288,0.5326,0.5308,0.5313,0.532,0.5331,0.5331,0.5338,0.5346,0.5347,0.5338,0.5354,0.5358,0.5379,0.5391,0.5369,0.5371,0.5434,0.5435,0.5437,0.545,0,0,0,0,0,0,0.5282,0.5287,0.5297,0.5309,0.5314,0.5345,0.5331,0.5332,0.5341,0.534,0.5351,0.5353,0.5354,0.5376,0.5381,0.5393,0.5372,0.5433,0.5435,0.5436,0.5448,0.5451,0.5454,0,0,0,0,0,0.528,0.53,0.5298,0.5303,0.5327,0.5346,0.5349,0.535,0.5342,0.5352,0.5357,0.5352,0.5389,0.5379,0.5383,0.5396,0.5432,0.5434,0.5436,0.5447,0.5451,0.5454,0,0,0,0,0,0,0.5291,0.5302,0.5299,0.5325,0.5334,0.5344,0.5357,0.5354,0.5366,0.5365,0.5365,0.5368,0.539,0.5395,0.5384,0.542,0.5409,0.5412,0.5416,0.542,0.5422,0.5421,0.5374,0,0,0,0,0,0.5296,0.5311,0.532,0.5341,0.5346,0.535,0.5359,0.5359,0.5369,0.5373,0.5379,0.5389,0.5402,0.5411,0.5424,0.5449,0.5451,0.546,0.5462,0.5465,0.5467,0.5479,0.5483,0.5443,0.5443,0.5443,0,0,0.5307,0.5315,0.5325,0.5343,0.5351,0.5365,0.5354,0.537,0.5381,0.5375,0.5395,0.54,0.5411,0.5434,0.5444,0.5439,0.5479,0.5467,0.5469,0.547,0.5482,0.5485,0.5489,0.5444,0.5444,0.5444,0,0,0.5335,0.5343,0.5361,0.5369,0.538,0.5383,0.5387,0.5397,0.54,0.542,0.5416,0.5428,0.5452,0.5459,0.5466,0.5495,0.5492,0.55,0.5514,0.5526,0.5529,0.5532,0.5542,0.5545,0.5502,0.5502,0.5502,0,0.5348,0.537,0.5371,0.5387,0.5395,0.539,0.5408,0.5415,0.543,0.5435,0.5429,0.5457,0.5464,0.5488,0.5495,0.5501,0.5505,0.5498,0.5529,0.5531,0.5534,0.5543,0.5547,0.5503,0.5503,0.5503,0.5502,0,0.5384,0.54,0.5413,0.5427,0.5436,0.5453,0.5456,0.5465,0.5464,0.5467,0.5487,0.5495,0.5509,0.5514,0.5514,0.5538,0.5534,0.5528,0.5517,0.5539,0.5547,0.5551,0.5504,0.5504,0.5503,0.5503,0,0,0.5421,0.5434,0.5439,0.5445,0.5456,0.5468,0.5484,0.5497,0.5505,0.5515,0.5528,0.5547,0.5542,0.5549,0.5549,0.556,0.5581,0.5553,0.5553,0.5557,0.5607,0.5611,0.5615,0.5579,0.5579,0.558,0.5606,0,0.5449,0.5478,0.5478,0.5504,0.5518,0.5513,0.5527,0.5535,0.5538,0.5549,0.5553,0.5566,0.5558,0.5562,0.5573,0.5577,0.5591,0.5575,0.559,0.5591,0.5588,0.562,0.5625,0.5649,0.561,0.561,0.5611,0,0.5486,0.5497,0.5524,0.5533,0.5538,0.5551,0.5563,0.5574,0.5583,0.5584,0.5592,0.559,0.5606,0.5594,0.5615,0.5604,0.561,0.5613,0.5614,0.5615,0.5602,0.5622,0.5657,0.566,0.5616,0.5616,0.5615,0,0.5509,0.5531,0.5549,0.5555,0.5565,0.5574,0.5578,0.5586,0.5594,0.5604,0.5609,0.5621,0.5627,0.5636,0.5637,0.5628,0.5658,0.5646,0.5659,0.5659,0.5665,0.5665,0.5701,0.567,0.567,0.567,0.567,0,0.5541,0.5557,0.556,0.5571,0.5589,0.5589,0.5607,0.5611,0.5618,0.563,0.5626,0.5637,0.5638,0.5649,0.5649,0.5666,0.5669,0.567,0.567,0.5671,0.567,0.5675,0.5673,0.5671,0.567,0.567,0.567,0,0.5569,0.5572,0.5592,0.5599,0.5602,0.5615,0.5621,0.5632,0.5634,0.5649,0.5652,0.5656,0.5669,0.567,0.5685,0.5686,0.5706,0.5704,0.5703,0.5702,0.5714,0.5713,0.5755,0.576,0.5726,0.5726,0.5726,0,0.5589,0.5602,0.5611,0.5618,0.5623,0.5636,0.5643,0.5643,0.5651,0.5661,0.567,0.5683,0.5692,0.5713,0.5716,0.5728,0.5726,0.574,0.5728,0.5727,0.5725,0.5724,0.5725,0.5742,0.5742,0.5743,0.5743,0,0.5624,0.5624,0.5635,0.5646,0.5655,0.5664,0.5672,0.5678,0.5679,0.5688,0.5701,0.5709,0.5724,0.5735,0.5746,0.575,0.5747,0.5747,0.575,0.575,0.5749,0.5749,0.5709,0.5746,0.5746,0.5745,0.5745,0.5745,0.5648,0.5659,0.5666,0.5678,0.5684,0.5692,0.5702,0.5705,0.5716,0.5728,0.5727,0.5741,0.5748,0.5762,0.5767,0.5778,0.5773,0.5778,0.5779,0.578,0.5781,0.5747,0.578,0.578,0.5779,0.5779,0.5779,0,0.5682,0.5686,0.5697,0.5709,0.5718,0.5713,0.5722,0.573,0.5742,0.5749,0.5759,0.5773,0.5784,0.5788,0.5799,0.5807,0.5805,0.5809,0.5809,0.5809,0.5785,0.5781,0.581,0.581,0.581,0.581,0.581,0.581,0.57,0.5718,0.5719,0.5738,0.5743,0.5756,0.5761,0.5768,0.5773,0.5789,0.5798,0.5801,0.5807,0.5818,0.5827,0.5828,0.5832,0.5837,0.5837,0.5814,0.5811,0.5808,0.5804,0.5838,0.5838,0.5861,0.5861,0.5861]}]]